Starlink 11405

operational
NORAD ID: 63008 Int'l Des: 2025-032 Owner: SPXS Country: US Constellation: starlink
LEOCIRCULAR

Über Starlink 11405

Beschreibung wird geladen...

Live-Position

3D-Globus wird geladen...

Nächste Überflüge

Höhenverlauf

Altitude vs Time

uPlot chart will show altitude changes over time

Zweizeiliger Elementsatz

1 63008U 25032D 25305.84062779 .00225284 00000-0 17025-2 0 9997
2 63008 42.9961 246.2250 0002063 300.6239 59.4425 15.70973193 41958
Epoch: 1. Nov. 2025 • Age: 51 hours

Aktueller Status

Höhe 354.3 km
Geschwindigkeit 7.70 km/s
Subsatellitenpunkt 23.16°N, 4.09°W
Startdatum 15. Feb. 2025
Alter 0.7 years
Typ internet

Technische Details

Klassifizierung Payload
Masse 960.00 kg
Trockenmasse 910.00 kg
Gesamtmasse 960.00 kg
Länge 0.30 m
Durchmesser 4.10 m
Spannweite 29.00 m
Form Box + pan
Hersteller SPXS
Bus-Typ Starlink V2MD
Phasenstatus In Orbit
Besitzer/Staat SPXS/US

Große Konstellationen

Loading constellations...